C/2011 F1 ( LINEAR )

Japanese version
Home page
Updated on September 13, 2014

---------------------------------------------------------------------

* Profile

Discovery Date March 17, 2011
Magnitude 18.3 mag
Discoverer Lincoln Laboratory Near-Earth Asteroid Research project

* Pictures

* Orbital Elements

Epoch 2013 Jan. 28.0 TT = JDT 2456320.5
T 2013 Jan. 8.00918 TT                                  MPC
q   1.8191537            (2000.0)            P               Q
z  +0.0000260      Peri.  192.54800     +0.03599968     +0.55369968
                   Node    85.11503     -0.82949693     +0.48083801
e   0.9999528      Incl.   56.61280     -0.55734987     -0.67986136
From 4479 observations 2011 Mar. 17-2014 Feb. 21, mean residual 0".5.
     Nongravitational parameters A1 = +6.15, A2 = -2.7492.

* Finding Charts

* Magnitudes Graph

        m1 = 4.0 + 5 log d + 11.0 log r  [ ,0]  (             - 2013 Jan.  8)
        m1 = 8.5 + 5 log d + 11.0 log r  [0, ]  (2013 Jan.  8 -             )

        * Gray curve is:  m1 = 4.0 + 5 log d + 11.0 log r

---------------------------------------------------------------------

The orbital elements are published on M.P.E.C. 2014-E18.
The charts are made with StellaNavigator Ver.8 (AstroArts).
The magnitudes graphs are made with Comet for Windows.

---------------------------------------------------------------------

Copyright(C) Seiichi Yoshida (comet@aerith.net). All rights reserved.